User: anonymous   Login
Location: Prague
(50.0830°N, 14.4670°E)
Time: 12:42:25
(UTC+02:00)
Language:

RS-15 - Orbit

View from above orbital plane
View from above orbital plane
View from above satellite
View from above satellite

Ground track
Ground track

The orbit data is extracted from the following two-line orbital elements,

1 23439U 94085A   24110.84464633 -.00000011  00000-0  88469-3 0  9994
2 23439  64.8133 138.1209 0151694 154.8576 205.9831 11.27576388207010
Epoch (UTC): 19 April 2024 20:16:17
Eccentricity: 0.0151694
inclination: 64.8133°
perigee height: 1895 km
apogee height: 2150 km
right ascension of ascending node: 138.1209°
argument of perigee: 154.8576°
revolutions per day: 11.27576388
mean anomaly at epoch: 205.9831°
orbit number at epoch: 20701

The dashed part of the orbit path shows where the satellite is in the earth's shadow,  

DLR